Powrót do katalogu

APEX ARIES 1

AktywnyNaukaPO
NORAD 59129·PAYLOAD·🇺🇸 United States

Wystrzelony Mar 4, 2024 z Vandenberg Space Force Base

Loading…

Następne Przeloty (najbliższe 24 godziny)

TLE

ŚwieżeSource: Space-Track

Epoka: Sep 14, 2026, 21:03 UTC

1 59129U 24043AH  26257.87761934  .00027094  00000-0  33798-3 0  9991
2 59129  97.5584  53.4729 0004246 220.4182 139.6759 15.59855894141882

Śledź APEX ARIES 1 w czasie rzeczywistym z AllMySat

Download on the App Store